Back to catalog

STARLINK-33985

AliveCommunicationsVLEO
NORAD 63943·PAYLOAD·🇺🇸 United States

Launched May 13, 2025 from Vandenberg Space Force Base

Loading…

Next Passes (next 24 hours)

TLE

FreshSource: CelesTrak SupGP

Epoch: Sep 14, 2026, 22:42 UTC

1 63943C 25098T   26257.94631944 -.00030897  00000+0 -10751-2 0  2572
2 63943  70.0001 155.6993 0003222 270.5782 335.2710 15.29585952    16

Track STARLINK-33985 in real time with AllMySat

Download on the App Store